Flag for Indonesia Weather past 2 weeks in Makassar, South Sulawesi, Indonesia

Now
75 °F

Passing clouds.


Feels Like: 77 °F
Forecast: 72 / 88 °F
Wind: 5 mph from Southeast

Location: Ujung Pandang / Hasanuddin

Current Time: Sep 2, 2014 at 11:04:50 PM

Latest Report: Sep 2, 2014 at 10:30 PM


Visibility: 5 mi

Pressure: 29.89 "Hg

Humidity: 65%

Dew point: 63 °F

Location of MakassarLocation

Historic Weather in Makassar — Graph

°F

Makassar temperature yesterday

Maximum temperature yesterday: 93 °F (at 11:30 AM)
Minimum temperature yesterday: 68 °F (at 5:00 AM)
Average temperature yesterday: 80 °F

Past Weeks' High & Low Weather Summary

 TemperatureHumidityPressure
High95 °F (Aug 25, 1:00 PM)100% (Aug 19, 3:00 AM)29.95 "Hg (Aug 19, 3:00 AM)
Low64 °F (Aug 25, 6:30 AM)28% (Aug 31, 11:30 AM)29.74 "Hg (Aug 25, 4:00 PM)
Average80 °F66%29.85 "Hg
* Reported Aug 18 10:00 PM — Sep 2 10:00 PM, Makassar, Weather by CustomWeather, © 2014

Note: Actual official high and low records may vary slightly from our data, if they occured in-between our weather recording intervals... More about our weather records

Advertising

Makassar weather history for previous 24 hours

 ConditionsComfort  
Time TempWeatherWind HumidityBarometerVisibility
10:00 PM
Sep 2
77 °FPassing clouds.6 mph57%29.89 "Hg5 mi
9:30 PM77 °FPassing clouds.6 mph61%29.89 "Hg5 mi
9:00 PM77 °FPassing clouds.3 mph65%29.89 "Hg5 mi
8:30 PM77 °FPassing clouds.5 mph65%29.89 "Hg5 mi
8:00 PM79 °FPassing clouds.2 mph74%29.86 "Hg5 mi
7:30 PM81 °FPassing clouds.3 mph70%29.86 "Hg5 mi
7:00 PM82 °FPassing clouds.3 mph66%29.86 "Hg5 mi
6:30 PM84 °FPassing clouds.6 mph58%29.83 "Hg5 mi
6:00 PM84 °FPassing clouds.7 mph58%29.83 "Hg6 mi
5:30 PM86 °FPassing clouds.7 mph55%29.83 "HgN/A
5:00 PM88 °FPassing clouds.7 mph52%29.80 "HgN/A
4:30 PM88 °FPassing clouds.7 mph49%29.80 "HgN/A
4:00 PM90 °FPassing clouds.8 mph46%29.80 "HgN/A
3:30 PM90 °FPassing clouds.9 mph46%29.80 "HgN/A
3:00 PM88 °FPassing clouds.9 mph49%29.80 "HgN/A
2:30 PM90 °FPassing clouds.12 mph49%29.80 "HgN/A
2:00 PM91 °FPassing clouds.12 mph44%29.80 "HgN/A
1:30 PM91 °FPassing clouds.9 mph44%29.80 "HgN/A
1:00 PM91 °FPassing clouds.10 mph44%29.83 "HgN/A
12:30 PM91 °FPassing clouds.8 mph44%29.83 "HgN/A
12:00 PM93 °FPassing clouds.8 mph41%29.83 "HgN/A
11:30 AM93 °FPassing clouds.5 mph34%29.86 "HgN/A
11:00 AM91 °FPassing clouds.5 mph36%29.86 "HgN/A
10:30 AM90 °FPassing clouds.5 mph46%29.86 "HgN/A
10:00 AM88 °FPassing clouds.5 mph49%29.89 "HgN/A
9:30 AM88 °FPassing clouds.3 mph49%29.89 "HgN/A
9:00 AM84 °FPassing clouds.5 mph55%29.89 "HgN/A
8:30 AM84 °FPassing clouds.5 mph55%29.89 "HgN/A
8:00 AM84 °FPassing clouds.7 mph55%29.89 "HgN/A
7:30 AM79 °FPassing clouds.3 mph65%29.89 "HgN/A
7:00 AM73 °FPassing clouds.3 mph78%29.86 "HgN/A
6:30 AM72 °FPassing clouds.5 mph78%29.86 "HgN/A
6:00 AM70 °FPassing clouds.5 mph83%29.86 "HgN/A
5:30 AM72 °FPassing clouds.3 mph73%29.86 "Hg5 mi
5:00 AM72 °FPassing clouds.6 mph73%29.86 "Hg5 mi
4:30 AM72 °FPassing clouds.2 mph78%29.86 "Hg5 mi
4:00 AM72 °FPassing clouds.5 mph78%29.83 "Hg5 mi
3:30 AM73 °FPassing clouds.3 mph74%29.83 "Hg5 mi
3:00 AM73 °FPassing clouds.6 mph74%29.83 "Hg5 mi
2:30 AM73 °FPassing clouds.5 mph74%29.83 "Hg5 mi
2:00 AM73 °FPassing clouds.5 mph74%29.86 "Hg5 mi
1:30 AM73 °FPassing clouds.5 mph74%29.86 "Hg5 mi
1:00 AM75 °FPassing clouds.6 mph69%29.86 "Hg5 mi
12:30 AM73 °FPassing clouds.6 mph74%29.86 "Hg5 mi
12:00 AM75 °FPassing clouds.6 mph69%29.89 "Hg5 mi
11:30 PM
Sep 1
73 °FPassing clouds.5 mph74%29.89 "Hg5 mi
11:00 PM75 °FPassing clouds.3 mph74%29.89 "Hg5 mi
Weather by CustomWeather, © 2014

See weather overviewHow to use our weather pages